When you browse on this site, cookies collect data to enhance your experience and personalize the content and advertising you see.
Visit our Privacy Policy to learn more. By continuing to use the site, you agree to this use of cookies and data.
  • In Hungary
  • List of Countries
  • For 7 days
  • Water Temperature
  • Weather Map
  • News
  • Weather Widgets
  • user-avatar
    Login

    Hourly Weather Homyaki

    Today, 15 October, Tuesday

    Time Temperature Precipitation Wind Pressure Humidity
    00:00 +12°C° 0 mm 4 mps 744 mmHg 87%
    01:00 +11°C° 0 mm 4 mps 745 mmHg 86%
    02:00 +11°C° 0 mm 4 mps 745 mmHg 84%
    03:00 +10°C° 0 mm 4 mps 746 mmHg 86%
    04:00 +10°C° 0 mm 3 mps 746 mmHg 89%
    05:00 +9°C° 0 mm 3 mps 747 mmHg 91%
    06:00 +10°C° 0 mm 3 mps 748 mmHg 90%
    07:00 +10°C° 0 mm 3 mps 748 mmHg 89%
    08:00 +10°C° 0 mm 3 mps 749 mmHg 89%
    09:00 +10°C° 0 mm 2 mps 750 mmHg 85%
    10:00 +10°C° 0 mm 2 mps 750 mmHg 82%
    11:00 +10°C° 0 mm 2 mps 751 mmHg 78%
    12:00 +10°C° 0 mm 2 mps 751 mmHg 77%
    13:00 +10°C° 0 mm 2 mps 751 mmHg 76%
    14:00 +11°C° 0 mm 1 mps 752 mmHg 75%
    15:00 +11°C° 0 mm 1 mps 752 mmHg 78%
    16:00 +10°C° 0 mm 1 mps 752 mmHg 80%
    17:00 +9°C° 0 mm 1 mps 752 mmHg 82%
    18:00 +8°C° 0 mm 2 mps 752 mmHg 84%
    19:00 +7°C° 0 mm 2 mps 752 mmHg 86%
    20:00 +7°C° 0 mm 2 mps 753 mmHg 89%
    21:00 +7°C° 0 mm 2 mps 752 mmHg 88%
    22:00 +7°C° 0 mm 2 mps 752 mmHg 88%
    23:00 +5°C° 0 mm 3 mps 752 mmHg 88%

    Tomorrow, 16 October, Wednesday

    Time Temperature Precipitation Wind Pressure Humidity
    00:00 +5°C° 0 mm 3 mps 752 mmHg 89%
    01:00 +5°C° 0 mm 3 mps 752 mmHg 90%
    02:00 +5°C° 0 mm 3 mps 752 mmHg 91%
    03:00 +5°C° 0 mm 3 mps 752 mmHg 92%
    04:00 +5°C° 0 mm 3 mps 752 mmHg 92%
    05:00 +5°C° 0 mm 3 mps 751 mmHg 93%
    06:00 +6°C° 0 mm 4 mps 751 mmHg 92%
    07:00 +6°C° 0 mm 4 mps 751 mmHg 90%
    08:00 +7°C° 0 mm 5 mps 750 mmHg 89%
    09:00 +8°C° 0 mm 5 mps 750 mmHg 86%
    10:00 +9°C° 0 mm 5 mps 750 mmHg 83%
    11:00 +10°C° 0 mm 5 mps 749 mmHg 80%
    12:00 +12°C° 0 mm 5 mps 749 mmHg 78%
    13:00 +13°C° 0 mm 6 mps 748 mmHg 76%
    14:00 +14°C° 0 mm 6 mps 748 mmHg 75%
    15:00 +14°C° 0 mm 5 mps 747 mmHg 78%
    16:00 +13°C° 0 mm 5 mps 747 mmHg 81%
    17:00 +13°C° 0 mm 4 mps 746 mmHg 85%
    18:00 +13°C° 0 mm 4 mps 746 mmHg 84%
    19:00 +13°C° 0 mm 5 mps 746 mmHg 84%
    20:00 +13°C° 0 mm 5 mps 746 mmHg 84%
    21:00 +13°C° 0 mm 4 mps 746 mmHg 82%
    22:00 +12°C° 0 mm 4 mps 746 mmHg 80%
    23:00 +12°C° 0 mm 4 mps 745 mmHg 79%

    Day after tomorrow, 17 October, Thursday

    Time Temperature Precipitation Wind Pressure Humidity
    00:00 +12°C° 0 mm 4 mps 745 mmHg 80%
    01:00 +11°C° 0 mm 3 mps 746 mmHg 81%
    02:00 +11°C° 0 mm 3 mps 746 mmHg 83%
    03:00 +11°C° 0 mm 3 mps 745 mmHg 87%
    04:00 +11°C° 0 mm 3 mps 745 mmHg 90%
    05:00 +11°C° 0 mm 3 mps 745 mmHg 94%
    06:00 +12°C° 0 mm 2 mps 745 mmHg 94%
    07:00 +12°C° 0 mm 2 mps 745 mmHg 94%
    08:00 +12°C° 0 mm 2 mps 746 mmHg 94%
    09:00 +13°C° 0 mm 2 mps 746 mmHg 86%
    10:00 +13°C° 0 mm 3 mps 746 mmHg 78%
    11:00 +16°C° 0 mm 3 mps 746 mmHg 70%
    12:00 +16°C° 0 mm 3 mps 746 mmHg 68%
    13:00 +16°C° 0 mm 3 mps 746 mmHg 67%
    14:00 +16°C° 0 mm 3 mps 746 mmHg 65%
    15:00 +15°C° 0.1 mm 2 mps 745 mmHg 70%
    16:00 +14°C° 0.1 mm 2 mps 745 mmHg 75%
    17:00 +13°C° 0.1 mm 2 mps 745 mmHg 79%
    18:00 +13°C° 0.7 mm 2 mps 745 mmHg 84%
    19:00 +12°C° 0.7 mm 1 mps 745 mmHg 89%
    20:00 +12°C° 0.7 mm 1 mps 745 mmHg 93%
    21:00 +11°C° 0.1 mm 1 mps 746 mmHg 94%
    22:00 +11°C° 0.1 mm 1 mps 746 mmHg 95%
    23:00 +10°C° 0.1 mm 1 mps 746 mmHg 96%

    18 October, Friday

    Time Temperature Precipitation Wind Pressure Humidity
    00:00 +10°C° 0 mm 1 mps 746 mmHg 96%
    01:00 +10°C° 0 mm 1 mps 746 mmHg 97%
    02:00 +9°C° 0 mm 1 mps 747 mmHg 97%
    03:00 +9°C° 0 mm 1 mps 747 mmHg 97%
    04:00 +9°C° 0 mm 1 mps 748 mmHg 96%
    05:00 +10°C° 0 mm 1 mps 748 mmHg 96%
    06:00 +10°C° 0 mm 1 mps 748 mmHg 95%
    07:00 +10°C° 0 mm 1 mps 749 mmHg 94%
    08:00 +11°C° 0 mm 1 mps 749 mmHg 93%
    09:00 +11°C° 0 mm 1 mps 749 mmHg 91%
    10:00 +12°C° 0 mm 1 mps 750 mmHg 88%
    11:00 +12°C° 0 mm 2 mps 750 mmHg 86%
    12:00 +12°C° 0 mm 1 mps 751 mmHg 86%
    13:00 +12°C° 0 mm 1 mps 751 mmHg 86%
    14:00 +12°C° 0 mm 1 mps 751 mmHg 86%
    15:00 +12°C° 0 mm 1 mps 751 mmHg 87%
    16:00 +10°C° 0 mm 2 mps 751 mmHg 89%
    17:00 +10°C° 0 mm 2 mps 751 mmHg 91%
    18:00 +10°C° 0 mm 2 mps 751 mmHg 91%
    19:00 +10°C° 0 mm 1 mps 751 mmHg 92%
    20:00 +10°C° 0 mm 1 mps 752 mmHg 93%
    21:00 +10°C° 0 mm 1 mps 752 mmHg 93%
    22:00 +10°C° 0 mm 1 mps 752 mmHg 94%
    23:00 +10°C° 0 mm 1 mps 752 mmHg 94%

    19 October, Saturday

    Time Temperature Precipitation Wind Pressure Humidity
    00:00 +10°C° 0 mm 1 mps 752 mmHg 94%
    01:00 +10°C° 0 mm 1 mps 752 mmHg 95%
    02:00 +9°C° 0 mm 1 mps 752 mmHg 95%
    03:00 +9°C° 0 mm 1 mps 752 mmHg 95%
    04:00 +9°C° 0 mm 1 mps 753 mmHg 95%
    05:00 +8°C° 0 mm 1 mps 753 mmHg 95%
    06:00 +8°C° 0 mm 1 mps 753 mmHg 94%
    07:00 +9°C° 0 mm 1 mps 753 mmHg 93%
    08:00 +9°C° 0 mm 1 mps 753 mmHg 91%
    09:00 +10°C° 0 mm 1 mps 753 mmHg 87%
    10:00 +12°C° 0 mm 1 mps 753 mmHg 82%
    11:00 +13°C° 0 mm 2 mps 754 mmHg 77%
    12:00 +13°C° 0 mm 2 mps 754 mmHg 76%
    13:00 +14°C° 0 mm 2 mps 754 mmHg 76%
    14:00 +14°C° 0 mm 2 mps 754 mmHg 75%
    15:00 +13°C° 0 mm 2 mps 754 mmHg 80%
    16:00 +12°C° 0 mm 2 mps 754 mmHg 85%
    17:00 +11°C° 0 mm 1 mps 754 mmHg 90%
    18:00 +10°C° 0 mm 2 mps 754 mmHg 90%
    19:00 +9°C° 0 mm 2 mps 754 mmHg 91%
    20:00 +9°C° 0 mm 2 mps 754 mmHg 92%
    21:00 +9°C° 0 mm 2 mps 754 mmHg 92%
    22:00 +9°C° 0 mm 2 mps 754 mmHg 93%
    23:00 +9°C° 0 mm 2 mps 754 mmHg 93%

    20 October, Sunday

    Time Temperature Precipitation Wind Pressure Humidity
    00:00 +9°C° 0 mm 2 mps 754 mmHg 93%
    01:00 +8°C° 0 mm 2 mps 754 mmHg 93%
    02:00 +8°C° 0 mm 2 mps 755 mmHg 93%
    03:00 +8°C° 0 mm 2 mps 755 mmHg 94%
    04:00 +8°C° 0 mm 2 mps 755 mmHg 94%
    05:00 +7°C° 0 mm 2 mps 754 mmHg 94%
    06:00 +8°C° 0 mm 2 mps 755 mmHg 93%
    07:00 +8°C° 0 mm 2 mps 755 mmHg 91%
    08:00 +8°C° 0 mm 3 mps 755 mmHg 90%
    09:00 +9°C° 0 mm 3 mps 755 mmHg 85%
    10:00 +11°C° 0 mm 3 mps 755 mmHg 81%
    11:00 +12°C° 0 mm 3 mps 755 mmHg 76%
    12:00 +12°C° 0 mm 3 mps 755 mmHg 75%
    13:00 +13°C° 0 mm 3 mps 755 mmHg 74%
    14:00 +13°C° 0 mm 3 mps 755 mmHg 73%
    15:00 +12°C° 0 mm 3 mps 754 mmHg 77%
    16:00 +11°C° 0 mm 3 mps 754 mmHg 81%
    17:00 +10°C° 0 mm 3 mps 754 mmHg 85%
    18:00 +10°C° 0 mm 3 mps 754 mmHg 86%
    19:00 +10°C° 0 mm 3 mps 754 mmHg 86%
    20:00 +8°C° 0 mm 4 mps 755 mmHg 87%
    21:00 +8°C° 0 mm 4 mps 755 mmHg 86%
    22:00 +8°C° 0 mm 4 mps 755 mmHg 86%
    23:00 +7°C° 0 mm 4 mps 755 mmHg 85%
    Show more